Location: Newark
(38.8667°N, 6.9667°W)
Time: 11:15:54
(UTC+00:00)

ISS - Pass Details

Date: 29 October 2019
Orbit: 412 x 421 km, 51.6° (Epoch: 20 November)

Event Time Altitude Azimuth Distance (km) Brightness Sun altitude
Exits shadow 05:29:30 25° 331° (NNW) 896 -2.4 -16.5°
Maximum altitude 05:29:33 25° 332° (NNW) 895 -2.4 -16.5°
Drops below altitude 10° 05:32:26 10° 31° (NNE) 1,508 -0.6 -15.9°
Sets 05:34:45 0° 44° (NE) 2,359 0.7 -15.5°
